| time (UTC) | temp F | wind direction | speed MPH | gust MPH | rain 1hr in | rain 24hr in | rain mn in | humidity % | barometer mb |
| 20260509093030 | 59 | 78 | 2.0 | 12.0 | 0.00 | 0.00 | 0.00 | 62 | 1019.4 |
| 20260509092029 | 58 | 89 | 4.0 | 12.0 | 0.00 | 0.00 | 0.00 | 63 | 1019.5 |
| 20260509091030 | 58 | 109 | 3.0 | 14.0 | 0.00 | 0.00 | 0.00 | 65 | 1019.5 |
| 20260509090029 | 57 | 102 | 5.0 | 14.0 | 0.00 | 0.00 | 0.00 | 66 | 1019.5 |
| 20260509085030 | 57 | 76 | 6.0 | 13.0 | 0.00 | 0.00 | 0.00 | 67 | 1019.5 |
| 20260509084030 | 56 | 103 | 2.0 | 13.0 | 0.00 | 0.00 | 0.00 | 69 | 1019.4 |
| 20260509083029 | 56 | 130 | 1.0 | 14.0 | 0.00 | 0.00 | 0.00 | 69 | 1019.5 |
| 20260509082030 | 56 | 78 | 2.0 | 15.0 | 0.00 | 0.00 | 0.00 | 71 | 1019.6 |
| 20260509081029 | 56 | 101 | 5.0 | 16.0 | 0.00 | 0.00 | 0.00 | 72 | 1019.8 |
| 20260509080030 | 55 | 72 | 1.0 | 11.0 | 0.00 | 0.00 | 0.00 | 73 | 1019.8 |
| 20260509075030 | 55 | 178 | 0.0 | 9.0 | 0.00 | 0.00 | 0.00 | 74 | 1019.9 |
| 20260509074030 | 55 | 223 | 0.0 | 9.0 | 0.00 | 0.00 | 0.00 | 74 | 1019.9 |
| 20260509073029 | 55 | 120 | 3.0 | 12.0 | 0.00 | 0.00 | 0.00 | 75 | 1019.8 |
| 20260509072030 | 55 | 114 | 2.0 | 10.0 | 0.00 | 0.00 | 0.00 | 76 | 1019.9 |
| 20260509071029 | 54 | 118 | 1.0 | 9.0 | 0.00 | 0.00 | 0.00 | 77 | 1019.9 |
| 20260509070030 | 53 | 324 | 1.0 | 11.0 | 0.00 | 0.00 | 0.00 | 78 | 1019.9 |
| 20260509065029 | 53 | 84 | 1.0 | 9.0 | 0.00 | 0.00 | 0.00 | 79 | 1019.9 |
| 20260509064030 | 52 | 279 | 1.0 | 6.0 | 0.00 | 0.00 | 0.00 | 80 | 1020.0 |
| 20260509063029 | 52 | 68 | 0.0 | 8.0 | 0.00 | 0.00 | 0.00 | 81 | 1020.1 |
| 20260509062030 | 51 | 140 | 1.0 | 11.0 | 0.00 | 0.00 | 0.00 | 82 | 1020.0 |
| 20260509061030 | 51 | 107 | 1.0 | 7.0 | 0.00 | 0.00 | 0.00 | 82 | 1020.0 |
| 20260509060030 | 50 | 171 | 1.0 | 9.0 | 0.00 | 0.00 | 0.00 | 83 | 1020.1 |
| 20260509055030 | 50 | 155 | 0.0 | 6.0 | 0.00 | 0.00 | 0.00 | 83 | 1019.9 |
| 20260509054030 | 49 | 93 | 1.0 | 8.0 | 0.00 | 0.00 | 0.00 | 83 | 1019.8 |
| 20260509053030 | 49 | 114 | 2.0 | 8.0 | 0.00 | 0.00 | 0.00 | 83 | 1019.7 |
| 20260509052029 | 49 | 95 | 1.0 | 8.0 | 0.00 | 0.00 | 0.00 | 83 | 1019.6 |
| 20260509051030 | 49 | 113 | 0.0 | 8.0 | 0.00 | 0.00 | 0.00 | 83 | 1019.7 |
| 20260509050030 | 48 | 118 | 1.0 | 7.0 | 0.00 | 0.00 | 0.00 | 83 | 1019.6 |
| 20260509045029 | 48 | 137 | 1.0 | 9.0 | 0.00 | 0.00 | 0.00 | 83 | 1019.5 |
| 20260509044030 | 48 | 109 | 2.0 | 8.0 | 0.00 | 0.00 | 0.00 | 83 | 1019.5 |
| 20260509043030 | 48 | 113 | 2.0 | 8.0 | 0.00 | 0.00 | 0.00 | 82 | 1019.5 |
| 20260509042030 | 48 | 103 | 2.0 | 7.0 | 0.00 | 0.00 | 0.00 | 82 | 1019.5 |
| 20260509041030 | 48 | 109 | 2.0 | 7.0 | 0.00 | 0.00 | 0.00 | 81 | 1019.4 |
| 20260509040029 | 48 | 159 | 2.0 | 9.0 | 0.00 | 0.00 | 0.00 | 81 | 1019.4 |
| 20260509035030 | 49 | 119 | 2.0 | 7.0 | 0.00 | 0.00 | 0.00 | 80 | 1019.5 |
| 20260509034030 | 49 | 104 | 3.0 | 7.0 | 0.00 | 0.00 | 0.00 | 80 | 1019.5 |
| 20260509033029 | 49 | 103 | 3.0 | 6.0 | 0.00 | 0.00 | 0.00 | 79 | 1019.4 |
| 20260509032030 | 49 | 103 | 2.0 | 6.0 | 0.00 | 0.00 | 0.00 | 79 | 1019.5 |
| 20260509031030 | 49 | 105 | 4.0 | 8.0 | 0.00 | 0.00 | 0.00 | 78 | 1019.5 |
| 20260509030029 | 50 | 106 | 4.0 | 7.0 | 0.00 | 0.00 | 0.00 | 78 | 1019.5 |
| 20260509025030 | 50 | 98 | 4.0 | 7.0 | 0.00 | 0.00 | 0.00 | 78 | 1019.5 |
| 20260509024030 | 50 | 98 | 4.0 | 7.0 | 0.00 | 0.00 | 0.00 | 77 | 1019.5 |
| 20260509023030 | 51 | 102 | 3.0 | 6.0 | 0.00 | 0.00 | 0.00 | 77 | 1019.6 |
| 20260509022030 | 51 | 106 | 2.0 | 4.0 | 0.00 | 0.00 | 0.00 | 77 | 1019.6 |
| 20260509021029 | 51 | 112 | 2.0 | 4.0 | 0.00 | 0.00 | 0.00 | 76 | 1019.5 |
| 20260509020030 | 51 | 104 | 1.0 | 3.0 | 0.00 | 0.00 | 0.00 | 76 | 1019.6 |
| 20260509015030 | 51 | 108 | 2.0 | 6.0 | 0.00 | 0.00 | 0.00 | 75 | 1019.6 |
| 20260509014029 | 51 | 121 | 1.0 | 6.0 | 0.00 | 0.00 | 0.00 | 75 | 1019.6 |
| 20260509013030 | 52 | 95 | 1.0 | 5.0 | 0.00 | 0.00 | 0.00 | 74 | 1019.6 |
| 20260509012029 | 52 | 160 | 0.0 | 4.0 | 0.00 | 0.00 | 0.00 | 74 | 1019.6 |
| 20260509011029 | 52 | 136 | 1.0 | 7.0 | 0.00 | 0.00 | 0.00 | 74 | 1019.6 |
| 20260509010030 | 52 | 112 | 1.0 | 7.0 | 0.00 | 0.00 | 0.00 | 73 | 1019.6 |
| 20260509005030 | 53 | 130 | 2.0 | 8.0 | 0.00 | 0.00 | 0.00 | 73 | 1019.6 |
| 20260509004029 | 53 | 98 | 1.0 | 8.0 | 0.00 | 0.00 | 0.00 | 73 | 1019.5 |
| 20260509003030 | 53 | 105 | 2.0 | 7.0 | 0.00 | 0.00 | 0.00 | 72 | 1019.5 |
| 20260509002029 | 53 | 149 | 1.0 | 9.0 | 0.00 | 0.00 | 0.00 | 72 | 1019.5 |
| 20260509001029 | 53 | 182 | 1.0 | 8.0 | 0.00 | 0.00 | 0.00 | 71 | 1019.4 |
| 20260509000030 | 54 | 145 | 2.0 | 9.0 | 0.00 | 0.00 | 0.00 | 71 | 1019.3 |
| 20260508235030 | 54 | 122 | 1.0 | 9.0 | 0.00 | 0.00 | 0.00 | 71 | 1019.3 |
| 20260508234029 | 54 | 125 | 1.0 | 9.0 | 0.00 | 0.00 | 0.00 | 70 | 1019.2 |
| 20260508233030 | 54 | 237 | 1.0 | 8.0 | 0.00 | 0.00 | 0.00 | 70 | 1019.3 |
| 20260508232030 | 55 | 183 | 1.0 | 6.0 | 0.00 | 0.00 | 0.00 | 69 | 1019.4 |
| 20260508231029 | 55 | 123 | 1.0 | 6.0 | 0.00 | 0.00 | 0.00 | 69 | 1019.4 |
| 20260508230030 | 55 | 102 | 2.0 | 6.0 | 0.00 | 0.00 | 0.00 | 68 | 1019.3 |
| 20260508225030 | 56 | 87 | 1.0 | 8.0 | 0.00 | 0.00 | 0.00 | 68 | 1019.4 |
| 20260508224029 | 56 | 121 | 2.0 | 7.0 | 0.00 | 0.00 | 0.00 | 67 | 1019.5 |
| 20260508223030 | 56 | 114 | 3.0 | 9.0 | 0.00 | 0.00 | 0.00 | 66 | 1019.5 |
| 20260508222030 | 57 | 129 | 1.0 | 7.0 | 0.00 | 0.00 | 0.00 | 66 | 1019.5 |
| 20260508221029 | 57 | 106 | 1.0 | 9.0 | 0.00 | 0.00 | 0.00 | 65 | 1019.5 |
| 20260508220030 | 57 | 149 | 0.0 | 7.0 | 0.00 | 0.00 | 0.00 | 65 | 1019.5 |
| 20260508215030 | 58 | 55 | 1.0 | 8.0 | 0.00 | 0.00 | 0.00 | 64 | 1019.4 |
| 20260508214029 | 58 | 95 | 1.0 | 7.0 | 0.00 | 0.00 | 0.00 | 64 | 1019.4 |
| 20260508213030 | 59 | 106 | 2.0 | 7.0 | 0.00 | 0.00 | 0.00 | 62 | 1019.3 |
| 20260508212029 | 59 | 122 | 0.0 | 8.0 | 0.00 | 0.00 | 0.00 | 62 | 1019.2 |
| 20260508211030 | 59 | 93 | 1.0 | 9.0 | 0.00 | 0.00 | 0.00 | 61 | 1019.3 |
| 20260508210029 | 59 | 151 | 0.0 | 4.0 | 0.00 | 0.00 | 0.00 | 61 | 1019.2 |
| 20260508205030 | 60 | 116 | 2.0 | 8.0 | 0.00 | 0.00 | 0.00 | 61 | 1019.1 |
| 20260508204030 | 59 | 104 | 3.0 | 7.0 | 0.00 | 0.00 | 0.00 | 62 | 1019.1 |
| 20260508203029 | 59 | 86 | 3.0 | 4.0 | 0.00 | 0.00 | 0.00 | 61 | 1019.1 |
| 20260508202030 | 60 | 85 | 2.0 | 3.0 | 0.00 | 0.00 | 0.00 | 60 | 1019.0 |
| 20260508201029 | 60 | 69 | 3.0 | 4.0 | 0.00 | 0.00 | 0.00 | 59 | 1019.0 |
| 20260508200030 | 61 | 57 | 4.0 | 5.0 | 0.00 | 0.00 | 0.00 | 59 | 1018.9 |
| 20260508195030 | 61 | 58 | 3.0 | 4.0 | 0.00 | 0.00 | 0.00 | 57 | 1018.9 |
| 20260508194030 | 62 | 67 | 2.0 | 4.0 | 0.00 | 0.00 | 0.00 | 56 | 1018.9 |
| 20260508193030 | 62 | 59 | 3.0 | 4.0 | 0.00 | 0.00 | 0.00 | 56 | 1018.7 |
| 20260508192029 | 63 | 57 | 2.0 | 6.0 | 0.00 | 0.00 | 0.00 | 55 | 1018.6 |
| 20260508191030 | 63 | 94 | 3.0 | 8.0 | 0.00 | 0.00 | 0.00 | 50 | 1018.5 |
| 20260508190029 | 64 | 107 | 2.0 | 7.0 | 0.00 | 0.00 | 0.00 | 50 | 1018.4 |
| 20260508185030 | 64 | 105 | 2.0 | 8.0 | 0.00 | 0.00 | 0.00 | 49 | 1018.2 |
| 20260508184030 | 65 | 106 | 2.0 | 7.0 | 0.00 | 0.00 | 0.00 | 48 | 1018.1 |
| 20260508183029 | 65 | 105 | 2.0 | 8.0 | 0.00 | 0.00 | 0.00 | 48 | 1018.1 |
| 20260508182030 | 65 | 89 | 1.0 | 4.0 | 0.00 | 0.00 | 0.00 | 47 | 1018.0 |
| 20260508181029 | 65 | 71 | 1.0 | 4.0 | 0.00 | 0.00 | 0.00 | 47 | 1018.0 |
| 20260508180030 | 65 | 85 | 2.0 | 4.0 | 0.00 | 0.00 | 0.00 | 46 | 1017.9 |
| 20260508175030 | 65 | 79 | 1.0 | 3.0 | 0.00 | 0.00 | 0.00 | 46 | 1017.8 |
| 20260508174030 | 65 | 81 | 1.0 | 3.0 | 0.00 | 0.00 | 0.00 | 48 | 1017.8 |
| 20260508173030 | 65 | 77 | 1.0 | 2.0 | 0.00 | 0.00 | 0.00 | 47 | 1017.9 |
| 20260508172029 | 65 | 95 | 0.0 | 2.0 | 0.00 | 0.00 | 0.00 | 48 | 1017.8 |
| 20260508171030 | 65 | 133 | 1.0 | 2.0 | 0.00 | 0.00 | 0.00 | 47 | 1017.7 |
| 20260508170030 | 65 | 91 | 2.0 | 7.0 | 0.00 | 0.00 | 0.00 | 48 | 1017.7 |
| 20260508165029 | 65 | 100 | 2.0 | 7.0 | 0.00 | 0.00 | 0.00 | 47 | 1017.7 |
| 20260508164030 | 65 | 73 | 0.0 | 4.0 | 0.00 | 0.00 | 0.00 | 47 | 1017.6 |
| 20260508163029 | 65 | 101 | 1.0 | 7.0 | 0.00 | 0.00 | 0.00 | 46 | 1017.5 |
| 20260508162030 | 65 | 121 | 2.0 | 11.0 | 0.00 | 0.00 | 0.00 | 46 | 1017.5 |
| 20260508161029 | 65 | 98 | 0.0 | 7.0 | 0.00 | 0.00 | 0.00 | 46 | 1017.6 |
| 20260508160030 | 65 | 118 | 1.0 | 9.0 | 0.00 | 0.00 | 0.00 | 46 | 1017.6 |
| 20260508155030 | 66 | 120 | 1.0 | 9.0 | 0.00 | 0.00 | 0.00 | 46 | 1017.6 |
| 20260508154030 | 66 | 91 | 1.0 | 7.0 | 0.00 | 0.00 | 0.00 | 46 | 1017.7 |
| 20260508153029 | 66 | 99 | 2.0 | 9.0 | 0.00 | 0.00 | 0.00 | 47 | 1017.8 |
| 20260508152030 | 66 | 98 | 1.0 | 4.0 | 0.00 | 0.00 | 0.00 | 46 | 1017.8 |
| 20260508151029 | 66 | 61 | 2.0 | 7.0 | 0.00 | 0.00 | 0.00 | 45 | 1017.9 |
| 20260508150030 | 66 | 83 | 2.0 | 11.0 | 0.00 | 0.00 | 0.00 | 46 | 1017.8 |
| 20260508145030 | 67 | 82 | 4.0 | 9.0 | 0.00 | 0.00 | 0.00 | 45 | 1017.8 |
| 20260508144030 | 67 | 57 | 2.0 | 8.0 | 0.00 | 0.00 | 0.00 | 43 | 1017.8 |
| 20260508143030 | 68 | 105 | 3.0 | 12.0 | 0.00 | 0.00 | 0.00 | 42 | 1017.9 |
| 20260508142029 | 68 | 58 | 3.0 | 11.0 | 0.00 | 0.00 | 0.00 | 44 | 1017.9 |
| 20260508141030 | 67 | 88 | 4.0 | 12.0 | 0.00 | 0.00 | 0.00 | 45 | 1018.0 |
| 20260508140030 | 67 | 86 | 4.0 | 12.0 | 0.00 | 0.00 | 0.00 | 45 | 1018.0 |
| 20260508135030 | 67 | 87 | 3.0 | 12.0 | 0.00 | 0.00 | 0.00 | 44 | 1018.0 |
| 20260508134029 | 67 | 106 | 3.0 | 11.0 | 0.00 | 0.00 | 0.00 | 46 | 1018.1 |
| 20260508133030 | 67 | 119 | 2.0 | 12.0 | 0.00 | 0.00 | 0.00 | 46 | 1018.1 |
| 20260508132029 | 66 | 153 | 2.0 | 13.0 | 0.00 | 0.00 | 0.00 | 47 | 1018.1 |
| 20260508131030 | 66 | 105 | 5.0 | 18.0 | 0.00 | 0.00 | 0.00 | 49 | 1018.2 |
| 20260508130029 | 65 | 60 | 2.0 | 10.0 | 0.00 | 0.00 | 0.00 | 50 | 1018.2 |
| 20260508125029 | 64 | 86 | 0.0 | 11.0 | 0.00 | 0.00 | 0.00 | 52 | 1018.3 |
| 20260508124030 | 62 | 124 | 2.0 | 8.0 | 0.00 | 0.00 | 0.00 | 53 | 1018.3 |
| 20260508123030 | 61 | 81 | 6.0 | 14.0 | 0.00 | 0.00 | 0.00 | 52 | 1018.3 |
| 20260508122030 | 62 | 111 | 3.0 | 14.0 | 0.00 | 0.00 | 0.00 | 53 | 1018.3 |
| 20260508121030 | 62 | 91 | 7.0 | 14.0 | 0.00 | 0.00 | 0.00 | 53 | 1018.4 |
| 20260508120030 | 62 | 110 | 3.0 | 10.0 | 0.00 | 0.00 | 0.00 | 53 | 1018.3 |
| 20260508115030 | 63 | 149 | 3.0 | 17.0 | 0.00 | 0.00 | 0.00 | 53 | 1018.4 |
| 20260508114029 | 63 | 104 | 4.0 | 15.0 | 0.00 | 0.00 | 0.00 | 56 | 1018.4 |
| 20260508113030 | 62 | 103 | 4.0 | 15.0 | 0.00 | 0.00 | 0.00 | 56 | 1018.4 |
| 20260508112029 | 61 | 91 | 6.0 | 20.0 | 0.00 | 0.00 | 0.00 | 59 | 1018.6 |
| 20260508111030 | 60 | 107 | 5.0 | 18.0 | 0.00 | 0.00 | 0.00 | 59 | 1018.5 |
| 20260508110029 | 60 | 60 | 3.0 | 16.0 | 0.00 | 0.00 | 0.00 | 58 | 1018.6 |
| 20260508105030 | 60 | 121 | 6.0 | 24.0 | 0.00 | 0.00 | 0.00 | 60 | 1018.6 |
| 20260508104029 | 59 | 100 | 5.0 | 15.0 | 0.00 | 0.00 | 0.00 | 61 | 1018.7 |
| 20260508103030 | 59 | 111 | 5.0 | 21.0 | 0.00 | 0.00 | 0.00 | 62 | 1018.7 |
| 20260508102029 | 58 | 226 | 1.0 | 14.0 | 0.00 | 0.00 | 0.00 | 64 | 1018.7 |
| 20260508101029 | 58 | 320 | 1.0 | 20.0 | 0.00 | 0.00 | 0.00 | 64 | 1018.7 |
| 20260508100030 | 58 | 111 | 2.0 | 21.0 | 0.00 | 0.00 | 0.00 | 65 | 1018.7 |
| 20260508095029 | 57 | 137 | 2.0 | 18.0 | 0.00 | 0.00 | 0.00 | 66 | 1018.8 |
| 20260508094030 | 57 | 270 | 1.0 | 16.0 | 0.00 | 0.00 | 0.00 | 66 | 1018.8 |